Bookmark and Share
Track history (hours):
 

Island Escape

Operator: V Ships Leisure SAM

Last reported at 2014-Apr-20 13:33 UTC. Time now 2014-Apr-20 13:35 UTC.
Position N 43°41' E 007°17'.

Length 185 m; draft 7.3 m.

Type: Passenger vessel. MMSI: 311368000.

NotesDate/timePositionNaut miles runAvg speedWind from/ knotsBaromVisibWave heightAir tempDewpointWater temp
2014-Apr-20 13:33N 43°41' E 007°17'0 0.4
2014-Apr-20 12:31N 43°42' E 007°17'0 0.0
2014-Apr-20 11:31N 43°42' E 007°17'0 0.0
2014-Apr-20 10:25N 43°42' E 007°17'0 0.0
2014-Apr-20 09:25N 43°42' E 007°17'0 0.0
2014-Apr-20 08:19N 43°42' E 007°17'0 0.0
2014-Apr-20 07:31N 43°42' E 007°17'0 0.0
2014-Apr-20 06:31N 43°42' E 007°17'0 0.0
2014-Apr-20 05:32N 43°42' E 007°17'5 5.5
2014-Apr-20 04:33N 43°38' E 007°23'6611.1
2014-Apr-19 22:33N 43°34' E 008°55'1111.4
2014-Apr-19 21:34N 43°34' E 009°10'1211.5
2014-Apr-19 20:34N 43°34' E 009°26'1212.2
2014-Apr-19 19:34N 43°33' E 009°43'1212.0
2014-Apr-19 18:34N 43°32' E 009°59'1111.3
2014-Apr-19 17:34N 43°32' E 010°15'2 2.1
2014-Apr-19 16:33N 43°33' E 010°18'0 0.0
2014-Apr-19 15:33N 43°33' E 010°18'0 0.0
2014-Apr-19 14:33N 43°33' E 010°18'0 0.0
2014-Apr-19 13:33N 43°33' E 010°18'0 0.0
2014-Apr-19 12:33N 43°33' E 010°18'0 0.0
2014-Apr-19 11:30N 43°33' E 010°18'0 0.0
2014-Apr-19 10:33N 43°33' E 010°18'0 0.0
2014-Apr-19 09:33N 43°33' E 010°18'0 0.0
2014-Apr-19 08:33N 43°33' E 010°18'0 0.0
2014-Apr-19 07:33N 43°33' E 010°18'0 0.0
2014-Apr-19 06:33N 43°33' E 010°18'0 0.0
2014-Apr-19 05:33N 43°33' E 010°18'0 0.0
2014-Apr-19 04:33N 43°33' E 010°18'6 5.9
2014-Apr-19 03:33N 43°29' E 010°13'1515.4
2014-Apr-19 02:33N 43°14' E 010°08'  
2014-Apr-16 07:17N 39°32' E 004°19'1210.6
2014-Apr-16 06:11N 39°25' E 004°06'2011.1
2014-Apr-16 04:22N 39°14' E 003°45'910.8
2014-Apr-16 03:33N 39°09' E 003°35'1111.3
2014-Apr-16 02:33N 39°02' E 003°23'1111.4
2014-Apr-16 01:33N 39°01' E 003°09'1111.5
2014-Apr-16 00:33N 39°01' E 002°54'1010.2
2014-Apr-15 23:34N 39°09' E 002°46'1211.8
2014-Apr-15 22:33N 39°21' E 002°42'1111.2
2014-Apr-15 21:33N 39°32' E 002°40'2 1.9
2014-Apr-15 20:31N 39°33' E 002°38'0 0.0
2014-Apr-15 19:31N 39°33' E 002°38'0 0.0
2014-Apr-15 18:31N 39°33' E 002°38'0 0.0
2014-Apr-15 17:33N 39°33' E 002°38'0 0.0
2014-Apr-15 16:28N 39°33' E 002°38'0 0.0
2014-Apr-15 15:31N 39°33' E 002°38'0 0.0
2014-Apr-15 14:31N 39°33' E 002°38'0 0.0
2014-Apr-15 11:31N 39°33' E 002°38'0 0.0
2014-Apr-15 10:31N 39°33' E 002°38'0 0.0
2014-Apr-15 09:31N 39°33' E 002°38'0 0.0
2014-Apr-15 08:31N 39°33' E 002°38'0 0.0
2014-Apr-15 07:31N 39°33' E 002°38'0 0.0
2014-Apr-15 06:31N 39°33' E 002°38'0 0.0
2014-Apr-15 05:31N 39°33' E 002°38'0 0.0
2014-Apr-15 03:31N 39°33' E 002°38'0 0.2
2014-Apr-15 02:34N 39°33' E 002°38'5 4.9
2014-Apr-15 01:34N 39°29' E 002°36'1312.7
2014-Apr-15 00:33N 39°26' E 002°20'1414.2
2014-Apr-14 23:34N 39°26' E 002°01'1312.8
2014-Apr-14 22:33N 39°26' E 001°45'1413.6
2014-Apr-14 21:34N 39°25' E 001°27'103 4.3
2014-Apr-13 21:22N 38°08' W 000°00'1011.8
2014-Apr-13 20:32N 38°00' W 000°08'1812.5
2014-Apr-13 19:05N 37°45' W 000°21'711.7
2014-Apr-13 18:27N 37°39' W 000°26'1111.6
2014-Apr-13 17:28N 37°31' W 000°36'1112.2
2014-Apr-13 16:32N 37°31' W 000°51'218 4.7
2014-Apr-11 18:33N 36°01' W 004°58'1817.5
2014-Apr-11 17:33N 35°59' W 005°20'1918.9
2014-Apr-11 16:32N 35°54' W 005°43'5 0.5
2014-Apr-11 06:33N 35°51' W 005°49'11 1.6
2014-Apr-10 23:33N 35°58' W 005°59'1616.0
2014-Apr-10 22:33N 35°57' W 005°40'1515.1
2014-Apr-10 21:34N 36°04' W 005°23'5 4.5
2014-Apr-10 20:29N 36°09' W 005°22'0 0.0
2014-Apr-10 19:32N 36°09' W 005°22'0 0.0
2014-Apr-10 18:29N 36°09' W 005°22'0 0.0
2014-Apr-10 17:32N 36°09' W 005°22'0 0.0
2014-Apr-10 16:32N 36°09' W 005°22'0 0.0
2014-Apr-10 15:32N 36°09' W 005°22'0 0.0
2014-Apr-10 14:29N 36°09' W 005°22'0 0.0
2014-Apr-10 13:32N 36°09' W 005°22'  

Dump ship's entire track history

sailing weather and tide predictions

Island Escape — C6SK4 — position and weather